[[{"header":{"parameterUnit":"m.s-1","parameterCategory":1,"la1":30.2991,"la2":30.254,"lo1":-89.0895,"lo2":-89.0444,"dy":0.0017,"dx":0.0017,"nx":28,"ny":28,"refTime":"2023-10-10T03:00:00:Z","depth":0,"parameterNumber":2,"parameterNumberName":"U-component_of_WINDS"},"data":[0,0,0,0,0,0,0,0,0,0,0,0,0,0,0,0,0,0,0,0,0,0,0,0,0,0,0,0,0,0,0,0,0,0,0,0,0,0,0,0,0,0,0,0,0,0,0,0,0,0,0,0,0,0,0,0,0,0,-9.2259,-9.2263,0,-9.2621,-9.2626,-9.263,-9.2565,-9.2558,-9.2552,-9.2546,-9.2914,-9.2929,-9.2944,0,0,0,0,0,0,0,0,0,0,0,0,0,-9.1509,-9.1523,-9.2259,-9.2263,-9.2268,-9.2621,-9.2626,-9.2631,-9.2566,-9.2558,-9.255,-9.2543,-9.2908,-9.2927,-9.2946,0,0,0,0,0,0,0,0,0,0,0,0,0,-9.1849,-9.1528,-9.2258,-9.2278,-9.2284,-9.262,-9.2626,-9.2632,-9.2568,-9.2558,-9.2548,-9.2539,-9.2902,-9.2925,-9.2948,-9.3286,0,0,-9.3021,-9.3031,0,0,0,0,0,0,0,0,-9.183,-9.1877,-9.2271,-9.2277,-9.2284,-9.2538,-9.2496,-9.2851,-9.257,-9.246,-9.2546,-9.2535,-9.2796,-9.2828,-9.2917,-9.3303,-9.3319,-9.3023,-9.3037,-9.3047,-9.3054,0,0,0,0,0,0,0,-9.1807,-9.1861,-9.2402,-9.2276,-9.2285,-9.2269,-9.2306,-9.2563,-9.2677,-9.2469,-9.2465,-9.2509,-9.2798,-9.2894,-9.2925,-9.3324,-9.3022,-9.3043,-9.3058,-9.3067,-9.4011,-9.4021,0,0,0,0,0,0,-9.1777,-9.1842,-9.2391,-9.2413,-9.2029,-9.229,-9.2332,-9.2466,-9.2674,-9.2697,-9.2517,-9.2504,-9.2859,-9.2897,-9.2938,-9.3351,-9.3047,-9.3069,-9.3083,-9.4,-9.4013,-9.4025,0,0,0,0,0,0,-9.1761,-9.1827,-9.2376,-9.2127,-9.2195,-9.2313,-9.2464,-9.2478,-9.2575,-9.2711,-9.273,-9.2594,-9.2853,-9.2904,-9.3201,-9.3362,-9.308,-9.3101,-9.3987,-9.4004,-9.4019,-9.4177,0,0,0,0,0,0,-9.174,-9.1821,-9.1951,-9.213,-9.2209,-9.2635,-9.2474,-9.2492,-9.2616,-9.2604,-9.2789,-9.281,-9.2849,-9.3166,-9.3225,-9.339,-9.312,-9.3973,-9.3995,-9.4014,-9.4158,-9.4197,-9.423,0,0,0,0,0,-9.1713,-9.1979,-9.1958,-9.2025,-9.2374,-9.2644,-9.2689,-9.273,-9.2629,-9.2761,-9.2849,-9.2804,-9.3335,-9.3197,-9.3262,-9.3437,-9.3963,-9.3989,-9.4012,-9.4142,-9.4189,-9.4229,0,0,0,0,0,0,-9.1814,-9.2003,-9.1982,-9.2313,-9.2464,-9.2632,-9.28,-9.2778,-9.2958,-9.2939,-9.298,-9.3022,-9.3325,-9.341,-9.3254,-9.3777,-9.3635,-9.3674,-9.3711,-9.3757,-9.3792,-9.3767,-9.3139,0,0,0,0,0,-9.1875,-9.208,-9.2233,-9.2511,-9.2588,-9.2681,-9.28,-9.2819,-9.2975,-9.3038,-9.3147,-9.33,-9.3501,-9.3633,-9.3825,-9.4169,-9.421,-9.4321,-9.4357,-9.4386,-9.442,-9.4612,-9.4664,-9.4106,-9.4105,-9.4105,0,0,-9.2003,-9.2131,-9.2258,-9.2535,-9.2653,-9.2865,-9.2735,-9.2962,-9.312,-9.3072,-9.3361,-9.3446,-9.362,-9.3943,-9.409,-9.4023,-9.4583,-9.4417,-9.4439,-9.4458,-9.4643,-9.4696,-9.4743,-9.4122,-9.4119,-9.4117,0,0,-9.2345,-9.2462,-9.2708,-9.2831,-9.3013,-9.3073,-9.3133,-9.3307,-9.3363,-9.3653,-9.3623,-9.3809,-9.4154,-9.4281,-9.439,-9.4783,-9.4751,-9.4844,-9.5034,-9.522,-9.5264,-9.5304,-9.5448,-9.5499,-9.4877,-9.4878,-9.4878,0,-9.2481,-9.2799,-9.2837,-9.3071,-9.3195,-9.3163,-9.3414,-9.353,-9.3765,-9.3851,-9.3772,-9.4208,-9.4321,-9.4676,-9.4772,-9.486,-9.4931,-9.4825,-9.5255,-9.5295,-9.5332,-9.547,-9.5524,-9.4888,-9.4887,-9.4886,-9.4885,0,-9.2959,-9.3181,-9.3358,-9.3589,-9.3732,-9.3973,-9.4048,-9.4188,-9.4195,-9.4264,-9.4562,-9.4698,-9.4919,-9.5004,-9.5011,-9.5361,-9.5314,-9.5245,-9.5104,-9.5396,-9.5526,-9.5579,-9.4903,-9.4899,-9.4896,-9.4894,0,0,-9.3376,-9.3627,-9.3692,-9.3798,-9.3997,-9.4169,-9.4408,-9.4627,-9.4749,-9.4911,-9.5116,-9.541,-9.5349,-9.5473,-9.5493,-9.5657,-9.5965,-9.5568,-9.5573,-9.5641,-9.6364,-9.6418,-9.6478,-9.5943,-9.5954,-9.5962,-9.6351,0,-9.3739,-9.4165,-9.4208,-9.4589,-9.4796,-9.4769,-9.4978,-9.5123,-9.5195,-9.538,-9.5457,-9.5668,-9.5568,-9.5644,-9.5804,-9.5894,-9.6112,-9.5866,-9.6136,-9.6145,-9.6097,-9.6546,-9.6603,-9.6964,-9.6402,-9.641,-9.6417,0,-9.4221,-9.4402,-9.4805,-9.4979,-9.5068,-9.5255,-9.5461,-9.5638,-9.5803,-9.5843,-9.5984,-9.5984,-9.6232,-9.6079,-9.6423,-9.6255,-9.6368,-9.6429,-9.6443,-9.6473,-9.6301,-9.6592,-9.7079,-9.7135,-9.6497,-9.649,-9.6485,0,-9.449,-9.4833,-9.512,-9.5211,-9.542,-9.5554,-9.5647,-9.5802,-9.5932,-9.6111,-9.6197,-9.6401,-9.6514,-9.6673,-9.6729,-9.6612,-9.7073,-9.6923,-9.7115,-9.7115,-9.7216,-9.7209,-9.7733,-9.7282,-9.7281,-9.728,-9.7279,0,-9.4894,-9.5143,-9.5244,-9.5421,-9.5699,-9.5745,-9.6019,-9.6105,-9.6244,-9.6438,-9.6425,-9.6607,-9.6668,-9.686,-9.6905,-9.7186,-9.7235,-9.7276,-9.7286,-9.728,-9.7276,-9.7357,-9.7335,-9.7295,-9.7291,-9.7289,-9.7286,0,-9.5242,-9.532,-9.5632,-9.5806,-9.5855,-9.6053,-9.6202,-9.6373,-9.6441,-9.6686,-9.6746,-9.6855,-9.7081,-9.7152,-9.7423,-9.7454,-9.7783,-9.7768,-9.7729,-9.7731,-9.7921,-9.7904,-9.8518,-9.8603,-9.8092,-9.8097,-9.8101,0,-9.5497,-9.5688,-9.5884,-9.6014,-9.6113,-9.6321,-9.6455,-9.6508,-9.6648,-9.6852,-9.6999,-9.7223,-9.7406,-9.7768,-9.7871,-9.808,-9.8073,-9.8273,-9.8104,-9.8093,-9.8081,-9.8071,-9.8092,-9.8306,-9.8312,-9.8316,-9.8319,0,-9.5943,-9.5973,-9.6166,-9.6376,-9.6537,-9.6703,-9.6864,-9.697,-9.7046,-9.7204,-9.7437,-9.7579,-9.7858,-9.8082,-9.8295,-9.839,-9.8371,-9.8372,-9.8428,-9.8426,-9.8397,-9.842,-9.782,-9.8358,-9.8354,-9.8351,-9.8349,-9.8348,-9.6255,-9.6426,-9.6592,-9.6809,-9.6936,-9.7087,-9.7258,-9.7349,-9.7545,-9.7778,-9.7796,-9.8049,-9.8211,-9.8495,-9.8602,-9.88,-9.8742,-9.8823,-9.8844,-9.8864,-9.8882,-9.8363,-9.8838,-9.8837,-9.8836,-9.8835,-9.8835,0,-9.6704,-9.681,-9.7009,-9.7237,-9.7408,-9.7374,-9.7551,-9.7697,-9.792,-9.8073,-9.8254,-9.8523,-9.8741,-9.8862,-9.908,-9.9215,-9.9212,-9.9271,-9.9264,-9.9287,-9.8918,-9.885,-9.9271,-9.9271,-9.9271,-9.9271,-9.9271,-9.9271,-9.6958,-9.7246,-9.7296,-9.7647,-9.7751,-9.8,-9.8104,-9.8245,-9.8368,-9.867,-9.8852,-9.8929,-9.9071,-9.93,-9.9499,-9.9529,-9.9611,-9.9678,-9.9703,-9.9357,-9.9312,-9.927,-9.9206,-9.9695,-9.9695,-10.0055,-10.0058,-10.0061]},{"header":{"parameterUnit":"m.s-1","parameterCategory":1,"la1":30.2991,"la2":30.254,"lo1":-89.0895,"lo2":-89.0444,"dy":0.0017,"dx":0.0017,"nx":28,"ny":28,"refTime":"2023-10-10T03:00:00:Z","depth":0,"parameterNumber":3,"parameterNumberName":"V-component_of_WINDS"},"data":[0,0,0,0,0,0,0,0,0,0,0,0,0,0,0,0,0,0,0,0,0,0,0,0,0,0,0,0,0,0,0,0,0,0,0,0,0,0,0,0,0,0,0,0,0,0,0,0,0,0,0,0,0,0,0,0,0,0,-4.8345,-4.8345,0,-4.8351,-4.8351,-4.8351,-4.8314,-4.8312,-4.8311,-4.831,-4.8316,-4.8317,-4.8318,0,0,0,0,0,0,0,0,0,0,0,0,0,-4.8298,-4.8299,-4.8345,-4.8345,-4.8345,-4.8351,-4.8351,-4.8352,-4.8314,-4.8312,-4.8311,-4.831,-4.8315,-4.8317,-4.8318,0,0,0,0,0,0,0,0,0,0,0,0,0,-4.8313,-4.8299,-4.8345,-4.8327,-4.8326,-4.8351,-4.8351,-4.8352,-4.8314,-4.8312,-4.8311,-4.8309,-4.8315,-4.8317,-4.8318,-4.8361,0,0,-4.8324,-4.8324,0,0,0,0,0,0,0,0,-4.8312,-4.8315,-4.833,-4.8328,-4.8327,-4.833,-4.8337,-4.8355,-4.8314,-4.8318,-4.831,-4.8309,-4.8322,-4.8323,-4.8327,-4.8361,-4.8362,-4.8324,-4.8325,-4.8325,-4.8326,0,0,0,0,0,0,0,-4.8311,-4.8314,-4.8347,-4.833,-4.8328,-4.8318,-4.8318,-4.834,-4.8329,-4.8318,-4.8315,-4.8317,-4.8321,-4.8326,-4.8327,-4.8362,-4.8324,-4.8325,-4.8326,-4.8327,-4.8428,-4.843,0,0,0,0,0,0,-4.8313,-4.8313,-4.8347,-4.8348,-4.8315,-4.832,-4.8321,-4.8331,-4.8329,-4.8327,-4.8318,-4.8315,-4.8324,-4.8325,-4.8327,-4.8375,-4.8325,-4.8327,-4.8328,-4.8427,-4.8429,-4.843,0,0,0,0,0,0,-4.8312,-4.8316,-4.8347,-4.833,-4.8333,-4.8323,-4.8334,-4.8332,-4.8337,-4.8329,-4.8326,-4.8325,-4.8323,-4.8325,-4.8352,-4.8375,-4.8328,-4.8329,-4.8425,-4.8427,-4.8429,-4.8473,0,0,0,0,0,0,-4.8311,-4.8316,-4.8333,-4.8331,-4.8334,-4.8373,-4.8336,-4.8333,-4.834,-4.8336,-4.8335,-4.8333,-4.8321,-4.835,-4.8354,-4.8376,-4.8331,-4.8422,-4.8426,-4.8429,-4.8469,-4.8476,-4.8482,0,0,0,0,0,-4.8309,-4.8345,-4.8334,-4.8338,-4.8355,-4.8374,-4.8376,-4.8362,-4.8342,-4.8358,-4.8353,-4.8333,-4.8372,-4.8353,-4.8358,-4.8381,-4.8421,-4.8425,-4.8428,-4.8466,-4.8475,-4.8482,0,0,0,0,0,0,-4.8351,-4.8345,-4.8332,-4.8369,-4.8372,-4.8368,-4.8388,-4.8372,-4.8381,-4.8377,-4.8359,-4.8359,-4.8389,-4.8388,-4.8367,-4.8421,-4.8393,-4.8398,-4.842,-4.8428,-4.8435,-4.8434,-4.8332,0,0,0,0,0,-4.8364,-4.8381,-4.8375,-4.8407,-4.841,-4.8399,-4.8407,-4.8395,-4.8398,-4.8399,-4.8396,-4.8399,-4.8411,-4.842,-4.8432,-4.8469,-4.8467,-4.8487,-4.8494,-4.8499,-4.8503,-4.852,-4.8528,-4.8443,-4.8443,-4.8442,0,0,-4.8392,-4.8391,-4.8403,-4.8416,-4.8417,-4.8433,-4.84,-4.842,-4.8431,-4.8402,-4.8427,-4.8425,-4.8427,-4.8459,-4.8473,-4.8459,-4.8526,-4.8504,-4.8508,-4.8509,-4.8525,-4.8533,-4.854,-4.8445,-4.8445,-4.8444,0,0,-4.8451,-4.8453,-4.8479,-4.8481,-4.8483,-4.8475,-4.8481,-4.8479,-4.8476,-4.8501,-4.8479,-4.8492,-4.8515,-4.8517,-4.8521,-4.8578,-4.856,-4.8582,-4.8617,-4.8634,-4.864,-4.8646,-4.8665,-4.8672,-4.8587,-4.8587,-4.8587,0,-4.8485,-4.851,-4.8494,-4.8514,-4.852,-4.8494,-4.8519,-4.8522,-4.8528,-4.8532,-4.8516,-4.8543,-4.8543,-4.8573,-4.8587,-4.8592,-4.8597,-4.8582,-4.8641,-4.8647,-4.8652,-4.8669,-4.8676,-4.8589,-4.8589,-4.8589,-4.8588,0,-4.855,-4.8567,-4.8588,-4.8594,-4.8602,-4.8625,-4.8612,-4.8622,-4.8609,-4.8603,-4.8627,-4.8626,-4.8636,-4.8642,-4.8631,-4.8671,-4.8662,-4.8644,-4.8615,-4.8663,-4.8678,-4.8685,-4.8593,-4.8592,-4.8591,-4.8591,0,0,-4.8635,-4.8631,-4.8639,-4.864,-4.864,-4.8653,-4.8674,-4.8683,-4.869,-4.8695,-4.8711,-4.873,-4.8713,-4.8717,-4.8706,-4.8721,-4.8764,-4.8701,-4.87,-4.871,-4.8805,-4.8817,-4.8825,-4.8752,-4.8754,-4.8755,-4.8804,0,-4.8691,-4.8726,-4.8712,-4.8748,-4.8763,-4.8738,-4.8756,-4.8757,-4.8751,-4.8762,-4.8756,-4.8768,-4.8746,-4.8748,-4.8762,-4.8756,-4.8782,-4.8752,-4.8765,-4.8766,-4.8763,-4.8834,-4.8847,-4.8894,-4.881,-4.8811,-4.8812,0,-4.876,-4.8767,-4.8804,-4.88,-4.8805,-4.8822,-4.8827,-4.8839,-4.8839,-4.8833,-4.8838,-4.8822,-4.8841,-4.8814,-4.8839,-4.8818,-4.8823,-4.8821,-4.8822,-4.8821,-4.8791,-4.8833,-4.8909,-4.8915,-4.8822,-4.8821,-4.8821,0,-4.8816,-4.8834,-4.8858,-4.886,-4.8856,-4.8868,-4.8866,-4.8865,-4.8871,-4.8876,-4.8879,-4.8887,-4.8891,-4.8897,-4.8883,-4.8865,-4.8909,-4.8881,-4.8903,-4.8904,-4.8912,-4.8912,-4.8988,-4.8919,-4.8919,-4.8919,-4.8919,0,-4.8878,-4.8901,-4.8882,-4.8897,-4.8922,-4.8905,-4.893,-4.8926,-4.8925,-4.8937,-4.8917,-4.8929,-4.8911,-4.8922,-4.8911,-4.8932,-4.8934,-4.8929,-4.8926,-4.893,-4.893,-4.8931,-4.8927,-4.8921,-4.892,-4.892,-4.892,0,-4.8943,-4.8932,-4.8956,-4.895,-4.8948,-4.8967,-4.8961,-4.8973,-4.8966,-4.8982,-4.8985,-4.8973,-4.8983,-4.8971,-4.8981,-4.8974,-4.9001,-4.8994,-4.9001,-4.8998,-4.902,-4.9017,-4.9098,-4.9107,-4.9034,-4.9035,-4.9036,0,-4.8983,-4.9,-4.8995,-4.9001,-4.9001,-4.9013,-4.9018,-4.9002,-4.9008,-4.9009,-4.9021,-4.903,-4.9036,-4.9054,-4.9045,-4.9052,-4.9044,-4.9072,-4.9045,-4.9048,-4.9041,-4.904,-4.904,-4.9077,-4.9078,-4.9078,-4.9079,0,-4.9053,-4.9046,-4.9055,-4.906,-4.9067,-4.9071,-4.9074,-4.908,-4.9063,-4.9071,-4.9081,-4.9086,-4.9095,-4.9104,-4.9108,-4.9106,-4.9089,-4.9088,-4.9093,-4.9096,-4.9098,-4.9095,-4.9013,-4.9085,-4.9085,-4.9084,-4.9084,-4.9084,-4.9105,-4.9118,-4.9116,-4.9125,-4.9125,-4.9127,-4.9138,-4.9131,-4.914,-4.9146,-4.9136,-4.9148,-4.9147,-4.9151,-4.915,-4.9159,-4.9147,-4.9155,-4.9157,-4.9158,-4.9161,-4.9099,-4.916,-4.916,-4.916,-4.916,-4.916,0,-4.9172,-4.9169,-4.9178,-4.9181,-4.9188,-4.9172,-4.9173,-4.918,-4.9191,-4.9191,-4.9197,-4.9208,-4.9215,-4.9208,-4.9213,-4.9222,-4.9214,-4.9224,-4.9222,-4.9221,-4.9172,-4.9166,-4.923,-4.923,-4.923,-4.923,-4.923,-4.923,-4.9208,-4.9228,-4.9221,-4.924,-4.9237,-4.9248,-4.925,-4.9252,-4.9251,-4.9264,-4.927,-4.9265,-4.9261,-4.9266,-4.9272,-4.9269,-4.9271,-4.9283,-4.9278,-4.9232,-4.9225,-4.9218,-4.9212,-4.9284,-4.9285,-4.9326,-4.9326,-4.9326]}]]